WMSAWMKP

Guest
Details From WMSA - Kuala Lumpur S Abdul Aziz Shah
To WMKP - Penang Intl
Flight Number -
Tags generated
Created
Modified
Stats Distance 152 nm / 281 km
Max Altitude 14,700 ft / 4,481 m
Waypoints 3
Social Downloads 0
Likes 0
Share VATSIM

Download

Looking for another format? Having issues loading an existing format? Contact us
Advertisement - Login to hide

Notes

Basic altitude profile: - Ascent Rate: 2000ft/min - Ascent Speed: 180kts - Cruise Altitude: 30000ft - Cruise Speed: 230kts - Descent Rate: 1500ft/min - Descent Speed: 180kts Options: - Use NATs: yes - Use PACOTS: yes - Use low airways: yes - Use high airways: yes

Route

WMSA TEPUS WMKP

ID Type Via Altitude Latitude Longitude Leg Dist Tot Dist Heading (true) Name
O WMSA APT - 0 ft / 0 m 3.13058˚ 101.54933˚ - 0 nm - Kuala Lumpur S Abdul Aziz Shah
TEPUS FIX - 14,700 ft / 4,481 m 4.17028˚ 100.75917˚ 78 nm 78 nm 323° / 323° -
O WMKP APT - 0 ft / 0 m 5.29714˚ 100.27686˚ 73 nm 151 nm 337° / 337° Penang Intl

Altitude Profile

Advertisement - Login to hide

WMSA

Details ICAO WMSA (SZB)
Name Kuala Lumpur S Abdul Aziz Shah
Region Malaysia (Peninsular Malaysia)
Timezone Asia/Kuala_Lumpur (UTC+8.0)
Stats Elevation 90 ft / 27 m (AMSL)
Location 3.130583° 101.549334°
Runways 1
Magnetic Variation 0.027° W

METAR

WMSA 150000Z 00000KT 4000 HZ FEW017CB SCT140 BKN280 26/24 Q1012

Decode

TAF

Not found

Departure Runways

ID Width Length Bearing (true) Bearing (mag) Surface Threshold Offset Overrun Length
15 148 ft / 45 m 12,450 ft / 3,795 m 149.84° 149.87° Asphalt 0 ft / 0 m 200 ft / 61 m
33 148 ft / 45 m 12,450 ft / 3,795 m 329.84° 329.87° Asphalt 0 ft / 0 m 200 ft / 61 m

WMKP

Details ICAO WMKP (PEN)
Name Penang Intl
Region Malaysia (Peninsular Malaysia)
Timezone Asia/Kuala_Lumpur (UTC+8.0)
Stats Elevation 11 ft / 3 m (AMSL)
Location 5.297141° 100.276865°
Runways 1
Magnetic Variation 0.206° W

METAR

WMKP 150030Z 05004KT 010V110 5000 HZ FEW017CB SCT140 BKN270 26/24 Q1011 NOSIG

Decode

TAF

Not found

Destination Runways

ID Width Length Bearing (true) Bearing (mag) Surface Threshold Offset Overrun Length
04 150 ft / 46 m 11,042 ft / 3,366 m 42.02° 42.23° Asphalt 0 ft / 0 m 205 ft / 62 m
22 150 ft / 46 m 11,042 ft / 3,366 m 222.02° 222.23° Asphalt 0 ft / 0 m 205 ft / 62 m

Approach Navaids

Runway Type Ident Frequency Range Bearing (true) Bearing (mag) Slope Elevation
04 Localiser IPG 109.90 MHz 18 nm / 33 km 42.88° 43.09° - 12 ft / 4 m (AMSL)
04 Glidescope IPG 109.90 MHz 10 nm / 19 km 42.02° 42.22° 3.00° 11 ft / 3 m (AMSL)
04 DME IPG 109.90 MHz 18 nm / 33 km - - - 11 ft / 3 m (AMSL)

Popular Alternatives